EW3732 Weather Reports


Display with metric or nautical units.
time (UTC)temp
F
wind
direction
speed
MPH
gust
MPH
rain 1hr
in
rain 24hr
in
rain mn
in
humidity
%
barometer
mb
20171211131714 25 110 0.0 2.0 0.00 0.00 0.00 90 1039.7
20171211130212 25 136 0.0 3.0 0.00 0.00 0.00 92 1039.8
20171211124711 25 15 0.0 6.0 0.00 0.00 0.00 92 1039.8
20171211123216 25 93 0.0 5.0 0.00 0.00 0.00 92 1039.8
20171211121709 25 150 1.0 3.0 0.00 0.00 0.00 92 1039.8
20171211120213 25 130 0.0 3.0 0.00 0.00 0.00 91 1039.8
20171211114710 25 48 1.0 5.0 0.00 0.00 0.00 90 1039.8
20171211113206 25 109 1.0 3.0 0.00 0.00 0.00 90 1039.8
20171211111709 25 135 0.0 4.0 0.00 0.00 0.00 91 1039.9
20171211110214 25 102 0.0 2.0 0.00 0.00 0.00 92 1040.0
20171211104702 25 97 0.0 4.0 0.00 0.00 0.00 92 1040.0
20171211103200 25 74 0.0 3.0 0.00 0.00 0.00 92 1040.1
20171211101702 25 43 0.0 4.0 0.00 0.00 0.00 92 1040.2
20171211100207 25 360 0.0 4.0 0.00 0.00 0.00 92 1040.2
20171211094658 25 102 1.0 6.0 0.00 0.00 0.00 92 1040.1
20171211093203 25 30 0.0 3.0 0.00 0.00 0.00 92 1040.1
20171211091656 25 88 0.0 3.0 0.00 0.00 0.00 92 1040.1
20171211090205 25 24 0.0 6.0 0.00 0.00 0.00 92 1040.2
20171211084653 25 126 0.0 3.0 0.00 0.00 0.00 92 1040.3
20171211083156 25 146 1.0 5.0 0.00 0.00 0.00 92 1040.4
20171211081650 25 204 0.0 4.0 0.00 0.00 0.00 92 1040.4
20171211080151 25 91 0.0 2.0 0.00 0.00 0.00 92 1040.5
20171211074655 25 128 0.0 3.0 0.00 0.00 0.00 92 1040.5
20171211073209 25 213 1.0 10.0 0.00 0.00 0.00 92 1040.4
20171211071648 25 36 2.0 8.0 0.00 0.00 0.00 92 1040.4
20171211070145 25 80 0.0 2.0 0.00 0.00 0.00 91 1040.4
20171211064646 25 122 0.0 4.0 0.00 0.00 0.00 92 1040.4
20171211063144 25 130 1.0 4.0 0.00 0.00 0.00 92 1040.4
20171211061645 25 146 0.0 4.0 0.00 0.00 0.00 91 1040.3
20171211060148 25 66 1.0 4.0 0.00 0.00 0.00 91 1040.2
20171211054642 25 137 0.0 6.0 0.00 0.00 0.00 91 1040.2
20171211053141 25 132 0.0 3.0 0.00 0.00 0.00 91 1040.1
20171211051641 25 134 0.0 4.0 0.00 0.00 0.00 91 1040.0
20171211050141 25 147 1.0 5.0 0.00 0.00 0.00 91 1040.0
20171211044640 25 67 1.0 6.0 0.00 0.00 0.00 92 1039.9
20171211043145 25 76 1.0 4.0 0.00 0.00 0.00 92 1039.9
20171211041638 25 163 1.0 3.0 0.00 0.00 0.00 92 1039.8
20171211040137 25 167 0.0 6.0 0.00 0.00 0.00 91 1039.9
20171211034637 26 148 3.0 8.0 0.00 0.00 0.00 91 1039.8
20171211033137 26 114 0.0 5.0 0.00 0.00 0.00 91 1039.7
20171211031635 26 69 1.0 5.0 0.00 0.00 0.00 90 1039.6
20171211030148 26 89 1.0 4.0 0.00 0.00 0.00 90 1039.6
20171211024632 26 123 0.0 6.0 0.00 0.00 0.00 90 1039.6
20171211023131 26 69 2.0 5.0 0.00 0.00 0.00 90 1039.4
20171211021630 26 5 0.0 4.0 0.00 0.00 0.00 90 1039.4
20171211020142 26 105 0.0 4.0 0.00 0.00 0.00 90 1039.4
20171211014641 26 131 0.0 3.0 0.00 0.00 0.00 90 1039.5
20171211013126 26 130 1.0 6.0 0.00 0.00 0.00 90 1039.6
20171211011629 26 144 2.0 6.0 0.00 0.00 0.00 90 1039.7
20171211010125 26 132 0.0 4.0 0.00 0.00 0.00 89 1039.8
20171211004625 26 85 1.0 8.0 0.00 0.00 0.00 89 1040.0
20171211003126 26 103 0.0 3.0 0.00 0.00 0.00 89 1039.9
20171211001646 26 94 1.0 3.0 0.00 0.00 0.00 89 1039.8
20171211000123 26 109 1.0 6.0 0.00 0.00 0.00 88 1039.9
20171210234640 27 104 1.0 4.0 0.00 0.00 0.00 88 1039.9
20171210233120 27 148 0.0 5.0 0.00 0.00 0.00 88 1039.8
20171210231619 27 360 0.0 2.0 0.00 0.00 0.00 88 1039.8
20171210230121 27 192 0.0 3.0 0.00 0.00 0.00 88 1039.8
20171210224627 27 75 0.0 8.0 0.00 0.00 0.00 88 1039.7
20171210223117 27 81 0.0 3.0 0.00 0.00 0.00 88 1039.8
20171210221622 27 181 0.0 3.0 0.00 0.00 0.00 88 1039.8
20171210220114 27 97 1.0 4.0 0.00 0.00 0.00 88 1040.0
20171210214618 27 138 2.0 6.0 0.00 0.00 0.00 88 1040.0
20171210213117 27 69 1.0 4.0 0.00 0.00 0.00 88 1040.0
20171210211611 27 98 1.0 4.0 0.00 0.00 0.00 87 1040.3
20171210210116 27 85 0.0 4.0 0.00 0.00 0.00 88 1040.4
20171210204607 27 171 2.0 5.0 0.00 0.00 0.00 88 1040.6
20171210203113 27 98 1.0 5.0 0.00 0.00 0.00 87 1040.6
20171210201607 27 116 0.0 4.0 0.00 0.00 0.00 88 1040.8
20171210200103 27 84 1.0 11.0 0.00 0.00 0.00 88 1040.9
20171210194611 26 83 2.0 5.0 0.00 0.00 0.00 89 1041.0
20171210193110 26 76 0.0 4.0 0.00 0.00 0.00 89 1041.1
20171210191607 26 46 1.0 5.0 0.00 0.00 0.00 89 1041.2
20171210190100 26 339 0.0 4.0 0.00 0.00 0.00 90 1041.4
20171210184558 26 89 1.0 4.0 0.00 0.00 0.00 91 1041.6
20171210183106 26 142 1.0 3.0 0.00 0.00 0.00 90 1041.8
20171210181557 26 136 1.0 4.0 0.00 0.00 0.00 91 1042.0
20171210180058 26 150 1.0 5.0 0.00 0.00 0.00 91 1042.0
20171210174559 26 67 2.0 4.0 0.00 0.00 0.00 90 1042.2
20171210173057 26 167 0.0 6.0 0.00 0.00 0.00 91 1042.2
20171210171553 26 116 0.0 3.0 0.00 0.00 0.00 91 1042.4
20171210170052 26 133 0.0 4.0 0.00 0.00 0.00 91 1042.4
20171210164553 26 111 2.0 5.0 0.00 0.00 0.00 91 1042.4
20171210163052 26 114 1.0 4.0 0.00 0.00 0.00 92 1042.4
20171210161549 26 90 0.0 6.0 0.00 0.00 0.00 92 1042.4
20171210160048 26 73 0.0 3.0 0.00 0.00 0.00 92 1042.3
20171210154546 26 131 0.0 4.0 0.00 0.00 0.00 92 1042.2
20171210153051 26 127 0.0 2.0 0.00 0.00 0.00 92 1042.2
20171210151545 26 110 0.0 0.0 0.00 0.00 0.00 91 1042.1
20171210150050 26 108 0.0 4.0 0.00 0.00 0.00 91 1041.9
20171210144539 26 182 0.0 0.0 0.00 0.00 0.00 92 1041.9
20171210143038 26 187 0.0 3.0 0.00 0.00 0.00 92 1041.8
20171210141541 25 65 1.0 4.0 0.00 0.00 0.00 91 1041.5
20171210140036 25 93 0.0 3.0 0.00 0.00 0.00 91 1041.3
20171210134542 26 18 0.0 3.0 0.00 0.00 0.00 92 1041.1
20171210133036 26 19 2.0 4.0 0.00 0.00 0.00 92 1041.0